Meteo Giornale » Osservazioni meteo Francia » Cognac
ore: 20:30 - Osservazioni Meteo Cognac
Lat. 45° 40' N Lon. 0° 19' W Alt. 30 metri s.l.m.
22 °C
Sereno
Temp. 24 Ore
17 °C
25 °C
Ovest
14.8 Km/h
Dew point 15 °C
Umidità 64 %
Visibilità 10 Km
Il sole sorge alle ore 07:21
Il sole tramonta alle ore 20:41
| Data e Ora | Cielo e Fenomeni | T °C | DP °C | Um. % | Pres. hPa | Vis. km | Vento km/h | |
|---|---|---|---|---|---|---|---|---|
| Oggi h: 20:30 | Sereno | 22 | 15 | 64 | 1022 | 10 | O 14.8 | |
| Oggi h: 20:00 | Poco Nuvoloso | 23 | 15 | 60 | 1021 | 10 | O 18.5 | |
| Oggi h: 19:30 | Poco Nuvoloso | 24 | 14 | 53 | 1021 | 10 | O 18.5 | |
| Oggi h: 19:00 | Poco Nuvoloso | 24 | 15 | 57 | 1021 | 10 | O/NO 16.7 | |
| Oggi h: 18:30 | Nuvoloso | 24 | 14 | 53 | 1021 | 10 | O 20.3 | |
| Oggi h: 18:00 | Sereno | 25 | 13 | 47 | 1021 | 10 | O 20.3 | |
| Oggi h: 17:30 | Sereno | 25 | 13 | 47 | 1021 | 10 | O 24 | |
| Oggi h: 17:00 | Molto Nuvoloso | 25 | 14 | 50 | 1021 | 10 | O 20.3 | |
| Oggi h: 16:30 | Nuvoloso | 24 | 15 | 57 | 1022 | 10 | O 25.9 | |
| Oggi h: 16:00 | Molto Nuvoloso | 25 | 15 | 53 | 1022 | 10 | O 24 | |
| Oggi h: 15:30 | Nuvoloso | 25 | 14 | 50 | 1021 | 10 | O 25.9 | |
| Oggi h: 15:00 | Molto Nuvoloso | 24 | 14 | 53 | 1021 | 10 | O 25.9 | |
| Oggi h: 14:30 | Nuvoloso | 25 | 15 | 53 | 1021 | 10 | O 25.9 | |
| Oggi h: 14:00 | Molto Nuvoloso | 24 | 15 | 57 | 1021 | 10 | O 24 | |
| Oggi h: 13:30 | Molto Nuvoloso | 23 | 14 | 56 | 1021 | 10 | O 24 | |
| Oggi h: 13:00 | Molto Nuvoloso | 24 | 15 | 57 | 1021 | 10 | O 18.5 | |
| Oggi h: 12:30 | Molto Nuvoloso | 24 | 15 | 57 | 1021 | 10 | O 20.3 | |
| Oggi h: 12:00 | Molto Nuvoloso | 23 | 15 | 60 | 1021 | 10 | O 18.5 | |
| Oggi h: 11:30 | Nuvoloso | 23 | 16 | 64 | 1021 | 10 | O 22.2 | |
| Oggi h: 11:00 | Molto Nuvoloso | 22 | 17 | 73 | 1021 | 10 | O/SO 18.5 | |
| Oggi h: 10:30 | Molto Nuvoloso | 21 | 17 | 77 | 1021 | 10 | SO 14.8 | |
| Oggi h: 10:00 | Molto Nuvoloso | 20 | 19 | 93 | 1021 | 10 | SO 16.7 | |
| Oggi h: 09:30 | Molto Nuvoloso | 19 | 18 | 93 | 1020 | 10 | S/SO 14.8 | |
| Oggi h: 09:00 | Nuvoloso | 18 | 17 | 93 | 1020 | 10 | S/SO 13 | |
| Oggi h: 08:30 | Molto Nuvoloso | 18 | 17 | 93 | 1020 | 10 | S/SO 9.3 | |
| Oggi h: 08:00 | Molto Nuvoloso | 18 | 17 | 93 | 1020 | 10 | S/SO 9.3 | |
| Oggi h: 07:30 | Coperto | 18 | 17 | 93 | 1019 | 10 | S/SO 11.1 | |
| Oggi h: 07:00 | Coperto | 18 | 17 | 93 | 1019 | 10 | S/SO 11.1 | |
| Oggi h: 06:30 | Sereno | 18 | 17 | 93 | 1019 | 10 | S/SO 11.1 | |
| Oggi h: 06:00 | Molto Nuvoloso | 18 | 17 | 93 | 1019 | 10 | S/SO 16.7 | |
| Oggi h: 05:30 | Pioggia Foschia | 18 | 17 | 93 | 1019 | 4 | SO 13 | |
| Oggi h: 05:00 | Pioggia | 18 | 17 | 93 | 1019 | 10 | SO 14.8 | |
| Oggi h: 04:30 | Coperto | 18 | 17 | 93 | 1019 | 10 | S/SO 16.7 | |
| Oggi h: 04:00 | Coperto | 18 | 16 | 88 | 1019 | 10 | S/SO 18.5 | |
| Oggi h: 03:30 | Molto Nuvoloso | 19 | 17 | 88 | 1019 | 10 | S/SO 18.5 | |
| Oggi h: 03:00 | Coperto | 18 | 17 | 93 | 1019 | 10 | S/SO 13 | |
| Oggi h: 02:30 | Molto Nuvoloso | 17 | 17 | 100 | 1019 | 10 | S 13 | |
| Oggi h: 02:00 | Nuvoloso | 17 | 16 | 93 | 1019 | 10 | S/SO 13 | |
| Oggi h: 01:30 | Sereno | 17 | 16 | 93 | 1019 | 10 | S/SO 11.1 | |
| Oggi h: 01:00 | Sereno | 17 | 16 | 93 | 1019 | 10 | S/SO 11.1 | |
| Oggi h: 00:30 | Poco Nuvoloso | 17 | 17 | 100 | 1019 | 10 | S/SO 11.1 | |
| Oggi h: 00:00 | Sereno | 17 | 17 | 100 | 1019 | 10 | S/SO 11.1 | |
| Ieri h: 23:30 | Sereno | 18 | 17 | 93 | 1019 | 10 | S/SO 9.3 | |
| Ieri h: 23:00 | Poco Nuvoloso | 18 | 17 | 93 | 1018 | 10 | S 11.1 | |
| Ieri h: 22:30 | Molto Nuvoloso | 18 | 17 | 93 | 1018 | 10 | S 11.1 | |
| Ieri h: 22:00 | Molto Nuvoloso | 18 | 17 | 93 | 1018 | 10 | S 13 | |



